Location: ???
(32.3885°N, 98.2106°E)
Time: 01:44:32
(UTC+00:00)

ISS - Visible Passes

Search period start: 22 January 2026 00:00
Search period end: 01 February 2026 00:00
Orbit: 413 x 423 km, 51.6° (Epoch: 21 January)

Date Brightness Start Highest point End Pass type
(mag) Time Alt. Az. Time Alt. Az. Time Alt. Az.
28 Jan -2.5 12:22:18 10° NNW 12:24:30 29° N 12:24:30 29° N visible
29 Jan -2.3 11:34:28 10° NNW 11:37:05 21° NE 11:39:08 13° E visible
29 Jan -1.0 13:10:53 10° WNW 13:12:07 18° W 13:12:07 18° W visible
30 Jan -3.3 12:22:22 10° NW 12:25:39 60° SW 12:27:03 30° SSE visible
31 Jan -3.8 11:34:04 10° NW 11:37:22 65° NE 11:40:41 10° SE visible
